Home   Weather   Horsens   Past weeks

Flag for Denmark Past Weather in Horsens, Denmark — Yesterday and Last 2 Weeks

Now
63 °F

Drizzle. Fog.


Feels Like: 63 °F
Forecast: 52 / 61 °F
Wind: 23 mph from Southwest

Location: Billund Lufthavn

Current Time: Sep 29, 2016 at 10:30:32 AM

Latest Report: Sep 29, 2016 at 9:50 AM


Visibility: 3 mi

Pressure: 29.68 "Hg

Humidity: 94%

Dew Point: 61 °F

Location of HorsensLocation

Past Weather in Horsens — Graph

°F

Horsens Temperature Yesterday

Maximum temperature yesterday: 63 °F (at 12:20 AM)
Minimum temperature yesterday: 59 °F (at 1:20 AM)
Average temperature yesterday: 61 °F

High & Low Weather Summary for the Past Weeks

 TemperatureHumidityPressure
High79 °F (Sep 14, 1:50 PM)100% (Sep 16, 5:50 AM)30.27 "Hg (Sep 16, 5:50 AM)
Low37 °F (Sep 27, 4:20 AM)44% (Sep 15, 1:50 PM)29.68 "Hg (Sep 29, 8:20 AM)
Average60 °F77%30.11 "Hg
* Reported Sep 14 9:20 AM — Sep 29 9:20 AM, Horsens, Weather by CustomWeather, © 2016

Note: Actual official high and low records may vary slightly from our data, if they occured in-between our weather recording intervals... More about our weather records

Advertising

Horsens Weather History for the Previous 24 Hours

Scroll right to see more
 ConditionsComfort  
Time TempWeatherWind HumidityBarometerVisibility
9:20 AM
Thu, Sep 29
63 °FSprinkles. Overcast.18 mph94%29.68 "Hg3 mi
8:50 AM64 °FOvercast.20 mph88%29.68 "HgN/A
8:20 AM64 °FSprinkles. Overcast.20 mph88%29.68 "HgN/A
7:50 AM64 °FOvercast.23 mph83%29.71 "HgN/A
7:20 AM66 °FOvercast.18 mph83%29.71 "HgN/A
6:50 AM64 °FOvercast.17 mph88%29.71 "HgN/A
6:20 AM64 °FOvercast.18 mph88%29.74 "HgN/A
5:50 AM66 °FOvercast.21 mph83%29.74 "HgN/A
5:20 AM66 °FOvercast.20 mph83%29.74 "HgN/A
4:50 AM66 °FOvercast.20 mph88%29.77 "Hg6 mi
4:20 AM66 °FOvercast.17 mph88%29.77 "HgN/A
3:50 AM66 °FOvercast.17 mph88%29.80 "HgN/A
3:20 AM66 °FOvercast.14 mph88%29.83 "HgN/A
2:50 AM64 °FOvercast.13 mph88%29.83 "Hg6 mi
2:20 AM63 °FOvercast.15 mph88%29.83 "HgN/A
1:50 AM63 °FOvercast.14 mph88%29.86 "HgN/A
1:20 AM61 °FOvercast.12 mph88%29.89 "HgN/A
12:50 AM61 °FOvercast.12 mph88%29.89 "HgN/A
12:20 AM59 °FOvercast.9 mph88%29.89 "HgN/A
11:50 PM
Wed, Sep 28
59 °FLight rain. Passing clouds.10 mph88%29.92 "HgN/A
11:20 PM59 °FLight rain. Passing clouds.9 mph82%29.92 "HgN/A
10:50 PM59 °FPassing clouds.8 mph82%29.95 "HgN/A
10:20 PM59 °FPartly cloudy.10 mph82%29.95 "HgN/A
9:50 PM59 °FPassing clouds.12 mph82%29.95 "HgN/A
9:20 PM59 °FSprinkles. Partly cloudy.13 mph82%29.95 "HgN/A
8:50 PM59 °FOvercast.12 mph77%29.98 "HgN/A
8:20 PM59 °FMostly cloudy.12 mph77%29.98 "HgN/A
7:50 PM59 °FPassing clouds.12 mph77%29.98 "HgN/A
7:20 PM59 °FPartly cloudy.13 mph77%29.95 "HgN/A
6:50 PM59 °FBroken clouds.15 mph77%29.95 "HgN/A
6:20 PM61 °FPartly sunny.18 mph72%29.95 "HgN/A
5:50 PM61 °FScattered clouds.18 mph68%29.95 "HgN/A
5:20 PM61 °FPartly sunny.21 mph68%29.95 "HgN/A
4:50 PM63 °FPartly sunny.23 mph64%29.95 "HgN/A
4:20 PM63 °FPartly sunny.21 mph68%29.95 "HgN/A
3:50 PM61 °FPartly sunny.22 mph72%29.95 "HgN/A
3:20 PM61 °FPartly sunny.22 mph72%29.95 "HgN/A
2:50 PM61 °FPartly sunny.21 mph72%29.95 "HgN/A
2:20 PM61 °FPartly sunny.22 mph72%29.92 "HgN/A
1:50 PM61 °FPartly sunny.21 mph77%29.92 "HgN/A
1:20 PM61 °FPartly sunny.18 mph77%29.92 "HgN/A
12:50 PM59 °FSprinkles. Broken clouds.20 mph82%29.92 "HgN/A
12:20 PM63 °FBroken clouds.18 mph68%29.92 "HgN/A
11:50 AM63 °FPartly sunny.23 mph68%29.92 "HgN/A
11:20 AM63 °FScattered clouds.22 mph68%29.89 "HgN/A
10:50 AM59 °FDrizzle. Partly sunny.25 mph82%29.89 "Hg6 mi
10:20 AM63 °FPassing clouds.20 mph73%29.89 "HgN/A
Weather by CustomWeather, © 2016

See weather overviewHow to use our weather pages